#timestamp,LO_Frequency,Hit,StdDev 
1559894415.2,286047000.5,N
1559894435.1,286047000.8,N
1559894436.0,286047000.8,N
1559894455.8,286046998.4,N
1559894475.6,286047000.5,N
1559894495.5,286047000.8,N
1559894515.3,286047000.1,N
1559894535.1,286046999.7,N
1559894555.9,286047001.1,N
1559894575.7,286046998.1,N
1559894595.6,286047000.0,N
1559894615.4,286046998.5,N
1559894635.2,286047000.6,N
1559894655.1,286047000.0,N
1559894656.0,286047000.0,N
1559894675.8,286047001.0,N
1559894695.7,286047000.9,N
1559894715.5,286047000.9,N
1559894735.3,286047000.3,N
1559894755.2,286046998.9,N
1559894775.0,286046998.9,N
1559894775.9,286046998.9,N
1559894795.8,286046999.0,N
1559894815.6,286046998.9,N
1559894835.4,286046997.0,Y
1559894855.3,286046998.4,P
1559894875.1,286046998.6,N
1559894895.8,286047000.9,N
1559894915.7,286047000.3,N
1559894935.5,286047001.2,N
1559894955.4,286047000.8,N
1559894975.2,286046999.9,N
1559894995.0,286047000.9,N
1559894995.9,286047000.9,N
1559895015.8,286047000.3,N
1559895035.6,286047000.4,N
1559895055.4,286047000.1,N
1559895075.3,286047000.9,N
1559895095.1,286046998.3,N
1559895115.9,286046998.2,N
1559895135.7,286046998.4,N
1559895155.5,286046998.3,N
1559895175.4,286046998.7,N
1559895195.2,286047000.2,N
1559895215.0,286046998.5,N
1559895215.9,286046998.5,N
1559895235.8,286046998.5,N
1559895255.6,286046999.6,N
1559895275.5,286046998.7,N
1559895295.3,286047000.8,N
1559895315.1,286047000.9,N
1559895335.9,286047000.8,N
1559895355.7,286046998.8,N
1559895375.5,286046998.8,N
1559895395.4,286046998.7,N
1559895415.2,286046999.3,N
1559895435.1,286046999.3,N
1559895436.0,286046999.3,N
1559895455.8,286046999.0,N
1559895475.6,286046996.5,Y
1559895495.5,286046996.9,P
1559895515.3,286046998.5,N
1559895535.1,286046999.3,N
1559895555.9,286046996.5,Y
1559895575.7,286046999.9,P
1559895595.6,286046998.5,N
1559895615.4,286047000.9,N
1559895635.2,286046998.5,N
1559895655.1,286046999.2,N
1559895656.0,286046999.2,N
1559895675.8,286046998.8,N
1559895695.7,286046998.4,N
1559895715.5,286046996.5,Y
1559895735.3,286046999.1,P
1559895755.2,286046999.1,P
1559895775.0,286046998.7,P
1559895775.9,286046998.7,Y
1559895795.8,286047000.7,P
1559895815.6,286047001.1,N
1559895835.4,286046998.7,N
1559895855.3,286046998.6,N
1559895875.1,286047002.7,N
1559895895.8,286047000.2,N
1559895915.7,286047000.6,N
1559895935.5,286046998.1,N
1559895955.4,286046998.7,N
1559895975.2,286046997.0,N
1559895995.0,286046999.1,N
1559895995.9,286046999.1,N
1559896015.8,286046999.2,N
1559896035.6,286046997.9,N
1559896055.5,286046995.3,Y
1559896075.3,286046996.6,P
1559896095.1,286046995.3,P
1559896115.9,286046996.1,N
1559896135.7,286046996.7,N
1559896155.5,286046998.8,N
1559896175.4,286046997.3,N
1559896195.2,286046996.7,N
1559896215.0,286046997.4,N
1559896216.0,286046997.4,N
1559896235.8,286046996.9,N
1559896255.6,286046996.6,Y
1559896275.5,286047000.3,P
1559896295.3,286047001.4,N
1559896315.1,286047002.6,N
1559896335.9,286047000.6,N
1559896355.7,286047000.9,N
1559896375.6,286046998.3,N
1559896395.4,286046998.4,N
1559896415.2,286046999.2,N
1559896435.1,286046997.2,N
1559896436.0,286046997.2,N
1559896455.8,286046995.8,N
1559896475.6,286046995.7,N
1559896495.5,286046996.3,N
1559896515.3,286046996.1,N
1559896535.2,286046995.9,N
1559896555.9,286046996.0,N
1559896575.7,286046995.5,N
1559896595.6,286046996.2,N
1559896615.4,286046996.0,N
1559896635.3,286046995.4,N
1559896655.1,286046996.1,N
1559896656.0,286046996.1,N
1559896675.8,286046996.1,N
1559896695.7,286046993.3,Y
1559896715.5,286046997.3,P
1559896735.3,286046996.7,P
1559896755.2,286046996.7,P
1559896775.0,286046999.5,N
1559896775.9,286046999.5,N
1559896795.8,286046999.5,N
1559896815.6,286046999.3,N
1559896835.4,286046996.5,N
1559896855.3,286046999.5,N
1559896875.1,286046996.6,N
1559896895.9,286046998.9,N
1559896915.7,286047000.8,N
1559896935.5,286046998.5,N
1559896955.4,286047000.8,N
1559896975.2,286046998.8,N
1559896995.1,286046998.4,N
1559896996.0,286046998.4,N
1559897015.8,286047000.0,N
1559897035.6,286047000.7,N
1559897055.5,286047001.2,N
1559897075.3,286046999.7,N
1559897095.1,286047001.2,N
1559897115.9,286047000.9,N
1559897135.7,286047002.8,N
1559897155.6,286047000.3,N
1559897175.4,286046999.9,N
1559897195.2,286047000.3,N
1559897215.1,286047000.4,N
1559897216.0,286047000.4,N
1559897235.8,286047000.1,N
1559897255.6,286046999.9,N
1559897275.5,286046999.7,N
1559897295.3,286047000.2,N
1559897315.2,286047002.7,N
1559897335.9,286047002.1,N
1559897355.7,286047004.4,Y
1559897375.6,286047001.4,P
1559897395.4,286047001.4,N
1559897415.2,286047004.2,P
1559897435.1,286047004.1,N
1559897436.0,286047004.1,N
1559897455.8,286047001.4,N
1559897475.7,286047004.2,N
1559897495.5,286047003.2,N
1559897515.3,286047003.3,N
1559897535.2,286047003.7,N
1559897555.0,286047003.3,N
1559897555.9,286047003.3,N
1559897575.8,286047003.5,N
1559897595.6,286047004.4,Y
1559897615.4,286047001.1,P
1559897635.3,286047000.2,N
1559897655.1,286047002.8,N
1559897675.8,286047000.9,N
1559897695.7,286047000.9,N
1559897715.5,286047002.4,N
1559897735.4,286046999.9,N
1559897755.2,286046998.7,N
1559897775.0,286046998.6,N
1559897775.9,286046998.6,N
1559897795.8,286047001.0,N
1559897815.6,286047000.7,N
1559897835.4,286047000.3,N
1559897855.3,286047000.9,N
1559897875.1,286047001.1,N
1559897895.9,286047000.8,N
1559897915.7,286046998.7,N
1559897935.5,286046998.2,N
1559897955.4,286046998.8,N
1559897975.2,286046998.5,N
1559897995.0,286047001.0,N
1559897995.9,286047001.0,N
